Pullman, WA

9:32 PM PDT on June 24, 2018 (GMT -0700)
Pullman-Moscow Regional

Weather History for KPUW - August, 2017

Change the Weather History Date:

Saturday, August 12, 2017

  Actual Average Record
Temperature  
Mean Temperature 73 °F 67 °F  
Max Temperature 85 °F 83 °F 99 °F (2001)
Min Temperature 61 °F 50 °F 37 °F (1957)
Degree Days  
Heating Degree Days 0 2  
Month to date heating degree days 0 14  
Since 1 June heating degree days 140 284  
Since 1 July heating degree days 6 78  
Cooling Degree Days 8 3  
Month to date cooling degree days 125 43  
Year to date cooling degree days 375 143  
Since 1 June cooling degree days 355 138  
Growing Degree Days 22 (Base 50)    
Moisture  
Dew Point 50 °F    
Average Humidity 47    
Maximum Humidity 59    
Minimum Humidity 34    
Precipitation  
Precipitation T in 0.02 in 0.36 in (1965)
Month to date precipitation T 0.24  
Year to date precipitation 14.86 10.52  
Sea Level Pressure  
Sea Level Pressure 29.86 in    
Wind  
Wind Speed 5 mph (NNE)    
Max Wind Speed 17 mph    
Max Gust Speed 23 mph    
Visibility 5 miles    
Events Rain , Thunderstorm    
T = Trace of Precipitation, MM = Missing Value Source: NWS Daily Summary

Daily Weather History Graph

Daily Weather History Graph

Search for Another Location

Airport or City:

Astronomy

Aug. 12, 2017 Rise Set
Actual Time 5:42 AM PDT 8:03 PM PDT
Civil Twilight 5:09 AM PDT 8:36 PM PDT
Nautical Twilight 4:27 AM PDT 9:18 PM PDT
Astronomical Twilight 3:39 AM PDT 10:05 PM PDT
Moon 10:43 PM PDT (8/12) 11:00 AM PDT (8/12)
Length of Visible Light 15h 27m
Length of Day
14h 20m
Waning Gibbous, 74% of the Moon is Illuminated
Aug 12
Waning Gibbous
Aug 14
Last Quarter
Aug 21
New
Aug 29
First Quarter
Sep 6
Full

Hourly Weather History & Observations

Time (PDT) Temp. Heat Index Dew Point Humidity Pressure Visibility Wind Dir Wind Speed Gust Speed Precip Events Conditions
12:53 AM 66.9 °F - 43.0 °F 42% 29.83 in 4.0 mi Calm Calm - N/A   Haze
1:53 AM 64.9 °F - 45.0 °F 48% 29.83 in 4.0 mi Calm Calm - N/A   Haze
2:53 AM 69.1 °F - 42.1 °F 38% 29.82 in 4.0 mi NE 3.5 mph - N/A   Haze
3:53 AM 62.1 °F - 46.0 °F 56% 29.83 in 4.0 mi Calm Calm - N/A   Haze
4:53 AM 62.1 °F - 45.0 °F 53% 29.83 in 4.0 mi Calm Calm - N/A   Haze
5:53 AM 63.0 °F - 45.0 °F 52% 29.83 in 3.0 mi Calm Calm - N/A   Haze
6:53 AM 66.9 °F - 46.0 °F 47% 29.85 in 2.5 mi Calm Calm - N/A   Haze
7:46 AM 73.0 °F - 48.0 °F 41% 29.91 in 3.0 mi ENE 4.6 mph - N/A   Haze
7:53 AM 73.0 °F - 48.0 °F 41% 29.85 in 2.5 mi ENE 5.8 mph - N/A   Haze
8:30 AM 73.0 °F - 48.0 °F 41% 29.93 in 3.0 mi Variable 3.5 mph - N/A   Haze
8:53 AM 73.9 °F - 48.0 °F 40% 29.87 in 3.0 mi Variable 5.8 mph - N/A   Haze
9:53 AM 73.9 °F - 48.0 °F 40% 29.89 in 3.0 mi WNW 8.1 mph - 0.00 in   Haze
10:25 AM 75.0 °F - 50.0 °F 41% 29.92 in 2.5 mi SE 16.1 mph - 0.00 in Rain Light Rain
10:33 AM 77.0 °F - 50.0 °F 39% 29.92 in 4.0 mi ENE 9.2 mph 23.0 mph 0.00 in Rain Light Rain
10:53 AM 73.9 °F - 52.0 °F 46% 29.88 in 3.0 mi NW 6.9 mph - 0.00 in   Haze
11:53 AM 78.1 °F - 52.0 °F 40% 29.88 in 5.0 mi West 8.1 mph - 0.00 in   Haze
12:53 PM 82.0 °F - 52.0 °F 35% 29.87 in 6.0 mi WSW 8.1 mph - N/A   Haze
1:53 PM 82.9 °F - 51.1 °F 33% 29.88 in 6.0 mi West 9.2 mph - 0.00 in   Haze
2:53 PM 82.9 °F - 51.1 °F 33% 29.87 in 5.0 mi WNW 11.5 mph - N/A   Haze
3:53 PM 82.9 °F 81.8 °F 53.1 °F 36% 29.85 in 5.0 mi North 12.7 mph - 0.00 in   Haze
4:53 PM 82.0 °F 81.2 °F 53.1 °F 37% 29.85 in 5.0 mi North 8.1 mph - N/A   Haze
5:53 PM 79.0 °F - 55.9 °F 45% 29.85 in 5.0 mi Variable 3.5 mph - 0.00 in Rain , Thunderstorm Light Rain
6:11 PM 77.0 °F - 57.9 °F 52% 29.86 in 5.0 mi Variable 5.8 mph - 0.00 in Rain Light Rain
6:53 PM 78.1 °F - 53.1 °F 42% 29.81 in 5.0 mi East 9.2 mph 23.0 mph 0.00 in   Haze
7:53 PM 75.0 °F - 54.0 °F 48% 29.81 in 5.0 mi South 3.5 mph - N/A   Haze
8:53 PM 68.0 °F - 53.1 °F 59% 29.82 in 7.0 mi Calm Calm - N/A   Clear
9:53 PM 68.0 °F - 48.9 °F 50% 29.82 in 8.0 mi SE 3.5 mph - N/A   Clear
10:53 PM 68.0 °F - 48.9 °F 50% 29.82 in 8.0 mi ENE 3.5 mph - N/A   Clear
11:53 PM 66.0 °F - 48.9 °F 54% 29.82 in 8.0 mi Calm Calm - N/A   Clear